Time,TemperatureF,DewpointF,PressureIn,WindDirection,WindDirectionDegrees,WindSpeedMPH,WindSpeedGustMPH,Humidity,HourlyPrecipIn,Conditions,Clouds,dailyrainin,SoftwareType,DateUTC
2013-06-20 00:08:00,51.8,51.3,29.77,ENE,67,0.0,-999.0,98,-99.99,,,0.00,Acu-Link.com,2013-06-20 07:08:00,
2013-06-20 00:24:00,51.8,51.3,29.77,ENE,67,0.0,-999.0,98,-99.99,,,0.01,Acu-Link.com,2013-06-20 07:24:00,
2013-06-20 00:39:00,51.8,51.3,29.77,WSW,247,0.0,-999.0,98,-99.99,,,0.04,Acu-Link.com,2013-06-20 07:39:00,
2013-06-20 00:54:00,51.8,51.3,29.77,ESE,112,0.0,-999.0,98,-99.99,,,0.07,Acu-Link.com,2013-06-20 07:54:00,
2013-06-20 01:09:00,51.8,51.3,29.76,NNW,337,0.0,-999.0,98,-99.99,,,0.09,Acu-Link.com,2013-06-20 08:09:00,
2013-06-20 01:24:00,51.8,51.3,29.76,ESE,112,0.0,-999.0,98,-99.99,,,0.13,Acu-Link.com,2013-06-20 08:24:00,
2013-06-20 01:39:00,51.8,51.3,29.76,NNW,337,0.0,-999.0,98,-99.99,,,0.17,Acu-Link.com,2013-06-20 08:39:00,
2013-06-20 01:54:00,51.8,51.3,29.75,NW,315,0.0,-999.0,98,-99.99,,,0.19,Acu-Link.com,2013-06-20 08:54:00,
2013-06-20 02:09:00,51.8,51.3,29.74,SW,225,0.0,-999.0,98,-99.99,,,0.21,Acu-Link.com,2013-06-20 09:09:00,
2013-06-20 02:25:00,51.8,51.3,29.73,SE,135,0.0,-999.0,98,-99.99,,,0.22,Acu-Link.com,2013-06-20 09:25:00,
2013-06-20 02:40:00,51.8,51.3,29.73,SE,135,0.0,-999.0,98,-99.99,,,0.22,Acu-Link.com,2013-06-20 09:40:00,
2013-06-20 02:55:00,51.8,51.3,29.72,ESE,112,1.1,-999.0,98,-99.99,,,0.22,Acu-Link.com,2013-06-20 09:55:00,
2013-06-20 03:10:00,51.8,51.3,29.72,WNW,292,0.0,-999.0,98,-99.99,,,0.22,Acu-Link.com,2013-06-20 10:10:00,
2013-06-20 03:25:00,51.8,51.3,29.71,North,0,0.0,-999.0,98,-99.99,,,0.22,Acu-Link.com,2013-06-20 10:25:00,
2013-06-20 03:40:00,51.8,51.3,29.70,NNE,22,0.0,-999.0,98,-99.99,,,0.22,Acu-Link.com,2013-06-20 10:40:00,
2013-06-20 03:55:00,51.8,51.3,29.69,SSW,202,0.0,-999.0,98,-99.99,,,0.22,Acu-Link.com,2013-06-20 10:55:00,
2013-06-20 04:11:00,51.8,51.3,29.70,West,270,0.0,-999.0,98,-99.99,,,0.24,Acu-Link.com,2013-06-20 11:11:00,
2013-06-20 04:26:00,51.8,51.3,29.70,NW,315,0.0,-999.0,98,-99.99,,,0.24,Acu-Link.com,2013-06-20 11:26:00,
2013-06-20 04:41:00,51.8,51.3,29.69,NNW,337,0.0,-999.0,98,-99.99,,,0.24,Acu-Link.com,2013-06-20 11:41:00,
2013-06-20 04:56:00,51.8,51.3,29.69,NNW,337,0.0,-999.0,98,-99.99,,,0.24,Acu-Link.com,2013-06-20 11:56:00,
2013-06-20 05:11:00,51.8,51.3,29.69,SE,135,0.0,-999.0,98,-99.99,,,0.24,Acu-Link.com,2013-06-20 12:11:00,
2013-06-20 05:26:00,51.8,51.3,29.68,NNE,22,0.0,-999.0,98,-99.99,,,0.24,Acu-Link.com,2013-06-20 12:26:00,
2013-06-20 05:41:00,51.8,51.3,29.67,SSE,157,0.0,-999.0,98,-99.99,,,0.24,Acu-Link.com,2013-06-20 12:41:00,
2013-06-20 05:56:00,51.8,51.3,29.67,NW,315,1.6,-999.0,98,-99.99,,,0.24,Acu-Link.com,2013-06-20 12:56:00,
2013-06-20 06:11:00,51.8,51.3,29.67,NNW,337,1.6,-999.0,98,-99.99,,,0.24,Acu-Link.com,2013-06-20 13:11:00,
2013-06-20 06:26:00,51.8,51.3,29.67,NNW,337,0.0,-999.0,98,-99.99,,,0.24,Acu-Link.com,2013-06-20 13:26:00,
2013-06-20 06:41:00,51.8,51.3,29.66,NW,315,1.1,-999.0,98,-99.99,,,0.24,Acu-Link.com,2013-06-20 13:41:00,
2013-06-20 06:56:00,51.8,51.3,29.65,North,0,2.7,-999.0,98,-99.99,,,0.24,Acu-Link.com,2013-06-20 13:56:00,
2013-06-20 07:11:00,51.8,51.3,29.65,South,180,0.0,-999.0,98,-99.99,,,0.24,Acu-Link.com,2013-06-20 14:11:00,
2013-06-20 07:26:00,51.8,51.3,29.65,WSW,247,1.1,-999.0,98,-99.99,,,0.24,Acu-Link.com,2013-06-20 14:26:00,
2013-06-20 07:42:00,51.8,51.3,29.65,NNW,337,2.0,-999.0,98,-99.99,,,0.24,Acu-Link.com,2013-06-20 14:42:00,
2013-06-20 07:57:00,51.8,51.3,29.65,South,180,0.0,-999.0,98,-99.99,,,0.24,Acu-Link.com,2013-06-20 14:57:00,
2013-06-20 08:12:00,53.6,53.0,29.64,West,270,2.0,-999.0,98,-99.99,,,0.24,Acu-Link.com,2013-06-20 15:12:00,
2013-06-20 08:27:00,53.6,53.0,29.64,West,270,2.7,-999.0,98,-99.99,,,0.24,Acu-Link.com,2013-06-20 15:27:00,
2013-06-20 08:42:00,53.6,53.0,29.64,NW,315,1.6,-999.0,98,-99.99,,,0.24,Acu-Link.com,2013-06-20 15:42:00,
2013-06-20 08:57:00,53.6,53.0,29.64,East,90,1.6,-999.0,98,-99.99,,,0.24,Acu-Link.com,2013-06-20 15:57:00,
2013-06-20 09:12:00,53.6,53.0,29.64,WNW,292,0.0,-999.0,98,-99.99,,,0.24,Acu-Link.com,2013-06-20 16:12:00,
2013-06-20 09:27:00,53.6,53.0,29.64,ESE,112,2.0,-999.0,98,-99.99,,,0.24,Acu-Link.com,2013-06-20 16:27:00,
2013-06-20 09:42:00,53.6,53.0,29.63,ENE,67,1.1,-999.0,98,-99.99,,,0.24,Acu-Link.com,2013-06-20 16:42:00,
2013-06-20 09:58:00,53.6,53.0,29.64,North,0,1.1,-999.0,98,-99.99,,,0.24,Acu-Link.com,2013-06-20 16:58:00,
2013-06-20 10:13:00,53.6,53.0,29.64,SSW,202,1.1,-999.0,98,-99.99,,,0.24,Acu-Link.com,2013-06-20 17:13:00,
2013-06-20 10:28:00,53.6,53.0,29.64,SE,135,2.7,-999.0,98,-99.99,,,0.24,Acu-Link.com,2013-06-20 17:28:00,
2013-06-20 10:43:00,55.4,54.8,29.64,South,180,1.6,-999.0,98,-99.99,,,0.24,Acu-Link.com,2013-06-20 17:43:00,
2013-06-20 10:59:00,55.4,54.8,29.63,ESE,112,0.0,-999.0,98,-99.99,,,0.24,Acu-Link.com,2013-06-20 17:59:00,
2013-06-20 11:14:00,55.4,54.8,29.64,NNE,22,1.6,-999.0,98,-99.99,,,0.24,Acu-Link.com,2013-06-20 18:14:00,
2013-06-20 11:29:00,55.4,54.8,29.64,NE,45,2.0,-999.0,98,-99.99,,,0.24,Acu-Link.com,2013-06-20 18:29:00,
2013-06-20 11:44:00,55.4,54.8,29.64,ESE,112,2.7,-999.0,98,-99.99,,,0.24,Acu-Link.com,2013-06-20 18:44:00,
2013-06-20 11:59:00,55.4,54.8,29.64,WSW,247,3.6,-999.0,98,-99.99,,,0.24,Acu-Link.com,2013-06-20 18:59:00,
2013-06-20 12:14:00,57.2,56.6,29.64,North,0,2.7,-999.0,98,-99.99,,,0.24,Acu-Link.com,2013-06-20 19:14:00,
2013-06-20 12:29:00,57.2,56.6,29.65,ESE,112,1.6,-999.0,98,-99.99,,,0.24,Acu-Link.com,2013-06-20 19:29:00,
2013-06-20 12:44:00,57.2,56.6,29.65,NNE,22,3.1,-999.0,98,-99.99,,,0.24,Acu-Link.com,2013-06-20 19:44:00,
2013-06-20 13:00:00,59.0,58.4,29.65,SW,225,1.1,-999.0,98,-99.99,,,0.24,Acu-Link.com,2013-06-20 20:00:00,
2013-06-20 13:15:00,59.0,58.4,29.66,WSW,247,2.7,-999.0,98,-99.99,,,0.24,Acu-Link.com,2013-06-20 20:15:00,
2013-06-20 13:30:00,59.0,56.7,29.67,ESE,112,3.1,-999.0,92,-99.99,,,0.24,Acu-Link.com,2013-06-20 20:30:00,
2013-06-20 13:45:00,59.0,56.1,29.67,ESE,112,1.1,-999.0,90,-99.99,,,0.24,Acu-Link.com,2013-06-20 20:45:00,
2013-06-20 14:00:00,60.8,57.5,29.67,WNW,292,3.1,-999.0,89,-99.99,,,0.24,Acu-Link.com,2013-06-20 21:00:00,
2013-06-20 14:15:00,60.8,57.8,29.67,SSE,157,1.1,-999.0,90,-99.99,,,0.24,Acu-Link.com,2013-06-20 21:15:00,
2013-06-20 14:31:00,60.8,57.5,29.67,East,90,1.1,-999.0,89,-99.99,,,0.24,Acu-Link.com,2013-06-20 21:31:00,
2013-06-20 14:46:00,62.6,59.0,29.67,WNW,292,4.0,-999.0,88,-99.99,,,0.24,Acu-Link.com,2013-06-20 21:46:00,
2013-06-20 15:01:00,62.6,58.7,29.67,NNW,337,2.7,-999.0,87,-99.99,,,0.24,Acu-Link.com,2013-06-20 22:01:00,
2013-06-20 15:16:00,62.6,59.3,29.68,NNW,337,1.6,-999.0,89,-99.99,,,0.24,Acu-Link.com,2013-06-20 22:16:00,
2013-06-20 15:31:00,62.6,57.7,29.68,ESE,112,1.6,-999.0,84,-99.99,,,0.24,Acu-Link.com,2013-06-20 22:31:00,
2013-06-20 15:46:00,64.4,59.1,29.69,NE,45,1.6,-999.0,83,-99.99,,,0.24,Acu-Link.com,2013-06-20 22:46:00,
2013-06-20 16:01:00,64.4,58.4,29.69,NNE,22,2.0,-999.0,81,-99.99,,,0.24,Acu-Link.com,2013-06-20 23:01:00,
2013-06-20 16:16:00,66.2,59.8,29.69,West,270,2.0,-999.0,80,-99.99,,,0.24,Acu-Link.com,2013-06-20 23:16:00,
2013-06-20 16:31:00,68.0,60.9,29.70,WSW,247,0.0,-999.0,78,-99.99,,,0.24,Acu-Link.com,2013-06-20 23:31:00,
2013-06-20 16:46:00,68.0,60.1,29.70,SW,225,1.1,-999.0,76,-99.99,,,0.24,Acu-Link.com,2013-06-20 23:46:00,
2013-06-20 17:01:00,68.0,60.9,29.70,WSW,247,0.0,-999.0,78,-99.99,,,0.24,Acu-Link.com,2013-06-21 00:01:00,
2013-06-20 17:16:00,68.0,60.5,29.70,South,180,1.6,-999.0,77,-99.99,,,0.24,Acu-Link.com,2013-06-21 00:16:00,
2013-06-20 17:31:00,69.8,60.0,29.71,NE,45,1.6,-999.0,71,-99.99,,,0.24,Acu-Link.com,2013-06-21 00:31:00,
2013-06-20 17:46:00,68.0,59.4,29.71,NNW,337,0.0,-999.0,74,-99.99,,,0.24,Acu-Link.com,2013-06-21 00:46:00,
2013-06-20 18:01:00,68.0,58.6,29.71,NNW,337,0.0,-999.0,72,-99.99,,,0.24,Acu-Link.com,2013-06-21 01:01:00,
2013-06-20 18:16:00,71.6,61.7,29.72,ESE,112,0.0,-999.0,71,-99.99,,,0.24,Acu-Link.com,2013-06-21 01:16:00,
2013-06-20 18:31:00,71.6,61.3,29.72,ENE,67,0.0,-999.0,70,-99.99,,,0.24,Acu-Link.com,2013-06-21 01:31:00,
2013-06-20 18:46:00,69.8,60.7,29.72,ENE,67,0.0,-999.0,73,-99.99,,,0.24,Acu-Link.com,2013-06-21 01:46:00,
2013-06-20 19:01:00,69.8,61.5,29.73,East,90,0.0,-999.0,75,-99.99,,,0.24,Acu-Link.com,2013-06-21 02:01:00,
2013-06-20 19:17:00,68.0,59.8,29.74,East,90,0.0,-999.0,75,-99.99,,,0.24,Acu-Link.com,2013-06-21 02:17:00,
2013-06-20 19:32:00,68.0,61.6,29.74,NE,45,0.0,-999.0,80,-99.99,,,0.24,Acu-Link.com,2013-06-21 02:32:00,
2013-06-20 19:47:00,64.4,58.4,29.75,North,0,0.0,-999.0,81,-99.99,,,0.24,Acu-Link.com,2013-06-21 02:47:00,
2013-06-20 20:02:00,66.2,59.8,29.75,East,90,0.0,-999.0,80,-99.99,,,0.24,Acu-Link.com,2013-06-21 03:02:00,
2013-06-20 20:17:00,66.2,59.8,29.76,NW,315,0.0,-999.0,80,-99.99,,,0.24,Acu-Link.com,2013-06-21 03:17:00,
2013-06-20 20:32:00,64.4,58.1,29.76,ESE,112,0.0,-999.0,80,-99.99,,,0.24,Acu-Link.com,2013-06-21 03:32:00,
2013-06-20 20:47:00,62.6,57.4,29.77,NW,315,0.0,-999.0,83,-99.99,,,0.24,Acu-Link.com,2013-06-21 03:47:00,
2013-06-20 21:02:00,62.6,58.3,29.78,East,90,0.0,-999.0,86,-99.99,,,0.24,Acu-Link.com,2013-06-21 04:02:00,
2013-06-20 21:17:00,60.8,57.2,29.78,NE,45,0.0,-999.0,88,-99.99,,,0.24,Acu-Link.com,2013-06-21 04:17:00,
2013-06-20 21:32:00,60.8,57.2,29.79,ENE,67,0.0,-999.0,88,-99.99,,,0.24,Acu-Link.com,2013-06-21 04:32:00,
2013-06-20 21:48:00,59.0,55.4,29.79,NE,45,0.0,-999.0,88,-99.99,,,0.24,Acu-Link.com,2013-06-21 04:48:00,
2013-06-20 22:03:00,59.0,54.8,29.80,NNE,22,0.0,-999.0,86,-99.99,,,0.24,Acu-Link.com,2013-06-21 05:03:00,
2013-06-20 22:18:00,59.0,55.8,29.80,North,0,0.0,-999.0,89,-99.99,,,0.24,Acu-Link.com,2013-06-21 05:18:00,
2013-06-20 22:33:00,57.2,56.6,29.81,ENE,67,1.6,-999.0,98,-99.99,,,0.24,Acu-Link.com,2013-06-21 05:33:00,
2013-06-20 22:48:00,57.2,56.6,29.81,ESE,112,0.0,-999.0,98,-99.99,,,0.24,Acu-Link.com,2013-06-21 05:48:00,
2013-06-20 23:03:00,55.4,54.8,29.81,NNE,22,0.0,-999.0,98,-99.99,,,0.24,Acu-Link.com,2013-06-21 06:03:00,
2013-06-20 23:19:00,55.4,54.8,29.82,NNE,22,0.0,-999.0,98,-99.99,,,0.24,Acu-Link.com,2013-06-21 06:19:00,
2013-06-20 23:34:00,55.4,54.8,29.82,SSE,157,0.0,-999.0,98,-99.99,,,0.24,Acu-Link.com,2013-06-21 06:34:00,
2013-06-20 23:49:00,53.6,53.0,29.83,ESE,112,0.0,-999.0,98,-99.99,,,0.24,Acu-Link.com,2013-06-21 06:49:00,